When you browse on this site, cookies collect data to enhance your experience and personalize the content and advertising you see.
Visit our Privacy Policy to learn more. By continuing to use the site, you agree to this use of cookies and data.
  • In Denmark
  • List of Countries
  • For 7 days
  • Water Temperature
  • Weather Map
  • Weather Widgets
  • user-avatar
    Login

    Hourly Weather Makove

    Today, 20 February, Thursday

    Time Temperature Precipitation Wind Pressure Humidity
    00:00 +2°C° 0 mm 2 mps 746 mmHg 84%
    01:00 +2°C° 0 mm 2 mps 746 mmHg 85%
    02:00 +2°C° 0 mm 2 mps 746 mmHg 87%
    03:00 +2°C° 0 mm 2 mps 746 mmHg 87%
    04:00 +2°C° 0 mm 2 mps 746 mmHg 88%
    05:00 +2°C° 0 mm 2 mps 746 mmHg 88%
    06:00 +2°C° 0 mm 2 mps 747 mmHg 89%
    07:00 +1°C° 0 mm 2 mps 747 mmHg 90%
    08:00 +1°C° 0 mm 2 mps 747 mmHg 90%
    09:00 +1°C° 0 mm 3 mps 748 mmHg 85%
    10:00 +2°C° 0 mm 3 mps 748 mmHg 80%
    11:00 +3°C° 0 mm 3 mps 748 mmHg 76%
    12:00 +4°C° 0 mm 3 mps 748 mmHg 72%
    13:00 +5°C° 0 mm 3 mps 748 mmHg 69%
    14:00 +6°C° 0 mm 2 mps 748 mmHg 66%
    15:00 +6°C° 0 mm 2 mps 748 mmHg 70%
    16:00 +5°C° 0 mm 2 mps 748 mmHg 74%
    17:00 +4°C° 0 mm 2 mps 749 mmHg 78%
    18:00 +3°C° 0 mm 2 mps 749 mmHg 81%
    19:00 +3°C° 0 mm 2 mps 749 mmHg 85%
    20:00 +2°C° 0 mm 2 mps 750 mmHg 89%
    21:00 +2°C° 0 mm 2 mps 750 mmHg 90%
    22:00 +2°C° 0 mm 2 mps 750 mmHg 90%
    23:00 +2°C° 0 mm 2 mps 750 mmHg 91%

    Tomorrow, 21 February, Friday

    Time Temperature Precipitation Wind Pressure Humidity
    00:00 +2°C° 0 mm 2 mps 750 mmHg 91%
    01:00 +2°C° 0 mm 2 mps 750 mmHg 92%
    02:00 +2°C° 0 mm 2 mps 750 mmHg 92%
    03:00 +1°C° 0 mm 2 mps 750 mmHg 93%
    04:00 +1°C° 0 mm 2 mps 750 mmHg 93%
    05:00 0°C° 0 mm 3 mps 749 mmHg 94%
    06:00 0°C° 0 mm 3 mps 749 mmHg 94%
    07:00 0°C° 0 mm 3 mps 750 mmHg 93%
    08:00 +1°C° 0 mm 3 mps 750 mmHg 93%
    15:00 +3°C° 0 mm 4 mps 748 mmHg 79%
    16:00 +1°C° 0 mm 4 mps 748 mmHg 81%
    17:00 +1°C° 0 mm 4 mps 748 mmHg 84%
    18:00 +1°C° 0 mm 4 mps 749 mmHg 86%
    19:00 +1°C° 0 mm 4 mps 749 mmHg 87%
    20:00 0°C° 0 mm 5 mps 750 mmHg 89%
    21:00 0°C° 0 mm 4 mps 750 mmHg 90%
    22:00 0°C° 0 mm 4 mps 750 mmHg 90%
    23:00 0°C° 0 mm 4 mps 750 mmHg 91%

    Day after tomorrow, 22 February, Saturday

    Time Temperature Precipitation Wind Pressure Humidity
    00:00 0°C° 0 mm 4 mps 750 mmHg 92%
    01:00 -1°C° 0 mm 4 mps 750 mmHg 93%
    02:00 -1°C° 0 mm 4 mps 750 mmHg 94%
    03:00 -1°C° 0 mm 4 mps 750 mmHg 93%
    04:00 -2°C° 0 mm 4 mps 750 mmHg 93%
    05:00 -2°C° 0 mm 4 mps 750 mmHg 92%
    06:00 -2°C° 0 mm 4 mps 751 mmHg 92%
    07:00 -2°C° 0 mm 4 mps 751 mmHg 92%
    08:00 -2°C° 0 mm 4 mps 751 mmHg 92%
    09:00 -1°C° 0 mm 4 mps 751 mmHg 90%
    10:00 0°C° 0 mm 4 mps 751 mmHg 87%
    11:00 0°C° 0 mm 4 mps 751 mmHg 84%
    12:00 +1°C° 0 mm 5 mps 750 mmHg 82%
    13:00 +1°C° 0 mm 5 mps 750 mmHg 81%
    14:00 +1°C° 0 mm 5 mps 750 mmHg 79%
    15:00 +1°C° 0 mm 5 mps 749 mmHg 79%
    16:00 +1°C° 0 mm 5 mps 748 mmHg 79%
    17:00 +1°C° 0 mm 5 mps 747 mmHg 80%
    18:00 +1°C° 0 mm 6 mps 747 mmHg 80%
    19:00 -1°C° 0 mm 6 mps 746 mmHg 81%
    20:00 -1°C° 0 mm 7 mps 745 mmHg 82%
    21:00 -1°C° 0.1 mm 7 mps 744 mmHg 83%
    22:00 -1°C° 0.1 mm 8 mps 743 mmHg 84%
    23:00 -1°C° 0.1 mm 9 mps 742 mmHg 86%

    23 February, Sunday

    Time Temperature Precipitation Wind Pressure Humidity
    00:00 -2°C° 1 mm 10 mps 740 mmHg 89%
    01:00 -3°C° 1 mm 10 mps 739 mmHg 92%
    02:00 -3°C° 1 mm 10 mps 738 mmHg 95%
    03:00 -2°C° 1.1 mm 10 mps 737 mmHg 96%
    04:00 -1°C° 1.1 mm 9 mps 736 mmHg 96%
    05:00 0°C° 1.1 mm 8 mps 734 mmHg 96%
    06:00 0°C° 0.9 mm 7 mps 734 mmHg 93%
    07:00 0°C° 0.9 mm 7 mps 734 mmHg 91%
    08:00 +1°C° 0.9 mm 6 mps 734 mmHg 88%
    09:00 0°C° 0.1 mm 7 mps 734 mmHg 85%
    10:00 0°C° 0.1 mm 7 mps 734 mmHg 82%
    11:00 0°C° 0.1 mm 8 mps 734 mmHg 79%
    12:00 0°C° 0.2 mm 8 mps 734 mmHg 75%
    13:00 0°C° 0.2 mm 8 mps 734 mmHg 71%
    14:00 +1°C° 0.2 mm 8 mps 734 mmHg 68%
    15:00 0°C° 0.1 mm 7 mps 735 mmHg 69%
    16:00 +1°C° 0.1 mm 6 mps 735 mmHg 69%
    17:00 0°C° 0.1 mm 5 mps 735 mmHg 70%
    18:00 0°C° 0 mm 5 mps 735 mmHg 73%
    19:00 -1°C° 0 mm 5 mps 736 mmHg 76%
    20:00 -1°C° 0 mm 4 mps 736 mmHg 78%
    21:00 -1°C° 0 mm 5 mps 736 mmHg 79%
    22:00 -1°C° 0 mm 5 mps 735 mmHg 81%
    23:00 -1°C° 0 mm 5 mps 735 mmHg 82%

    24 February, Monday

    Time Temperature Precipitation Wind Pressure Humidity
    00:00 -2°C° 0 mm 5 mps 735 mmHg 83%
    01:00 -2°C° 0 mm 5 mps 735 mmHg 85%
    02:00 -2°C° 0 mm 5 mps 735 mmHg 86%
    03:00 -2°C° 0 mm 5 mps 734 mmHg 86%
    04:00 -2°C° 0 mm 5 mps 734 mmHg 86%
    05:00 -2°C° 0 mm 5 mps 734 mmHg 85%
    06:00 -2°C° 0 mm 5 mps 734 mmHg 84%
    07:00 -2°C° 0 mm 5 mps 734 mmHg 84%
    08:00 -2°C° 0 mm 5 mps 733 mmHg 83%
    09:00 -2°C° 0.1 mm 5 mps 734 mmHg 86%
    10:00 -1°C° 0.1 mm 5 mps 734 mmHg 89%
    11:00 -1°C° 0.1 mm 5 mps 734 mmHg 92%
    12:00 -2°C° 0.2 mm 6 mps 734 mmHg 92%
    13:00 -2°C° 0.2 mm 6 mps 734 mmHg 93%
    14:00 -2°C° 0.2 mm 6 mps 734 mmHg 94%
    15:00 -2°C° 0.1 mm 7 mps 735 mmHg 93%
    16:00 -2°C° 0.1 mm 7 mps 736 mmHg 92%
    17:00 -2°C° 0.1 mm 7 mps 736 mmHg 90%
    18:00 -2°C° 0 mm 6 mps 737 mmHg 87%
    19:00 -2°C° 0 mm 6 mps 738 mmHg 83%
    20:00 -2°C° 0 mm 5 mps 739 mmHg 80%
    21:00 -2°C° 0 mm 5 mps 739 mmHg 81%
    22:00 -2°C° 0 mm 5 mps 740 mmHg 82%
    23:00 -3°C° 0 mm 4 mps 740 mmHg 83%

    25 February, Tuesday

    Time Temperature Precipitation Wind Pressure Humidity
    00:00 -3°C° 0 mm 4 mps 741 mmHg 84%
    01:00 -3°C° 0 mm 4 mps 741 mmHg 85%
    02:00 -3°C° 0 mm 4 mps 741 mmHg 85%
    03:00 -4°C° 0 mm 4 mps 742 mmHg 87%
    04:00 -4°C° 0 mm 3 mps 742 mmHg 89%
    05:00 -4°C° 0 mm 3 mps 742 mmHg 90%
    06:00 -4°C° 0 mm 3 mps 742 mmHg 89%
    07:00 -4°C° 0 mm 3 mps 742 mmHg 88%
    08:00 -2°C° 0 mm 3 mps 743 mmHg 87%
    09:00 -2°C° 0 mm 3 mps 743 mmHg 83%
    10:00 -1°C° 0 mm 3 mps 742 mmHg 78%
    11:00 0°C° 0 mm 3 mps 742 mmHg 73%
    12:00 -1°C° 0 mm 4 mps 742 mmHg 69%
    13:00 0°C° 0 mm 4 mps 742 mmHg 66%
    14:00 +1°C° 0 mm 4 mps 741 mmHg 62%
    15:00 0°C° 0 mm 4 mps 741 mmHg 67%
    16:00 0°C° 0 mm 4 mps 740 mmHg 72%
    17:00 -1°C° 0 mm 4 mps 740 mmHg 77%
    18:00 -1°C° 0 mm 4 mps 740 mmHg 84%
    19:00 -1°C° 0 mm 4 mps 739 mmHg 90%
    20:00 -1°C° 0 mm 5 mps 739 mmHg 96%
    21:00 -1°C° 0 mm 4 mps 739 mmHg 96%
    22:00 0°C° 0 mm 4 mps 739 mmHg 96%
    23:00 0°C° 0 mm 4 mps 738 mmHg 96%
    Show more